Location: Le Rocchette
(44.3500°N, 7.8333°E)
Time: 13:03:51
(UTC+00:00)

Cosmos 2150 Rocket - Pass Details

Date: 17 November 2019
Orbit: 749 x 807 km, 74.0° (Epoch: 05 December)

Event Time Altitude Azimuth Distance (km) Brightness Sun altitude
Rises 05:38:12 0° 218° (SW) 3,311 7.1 -8.9°
Reaches altitude 10° 05:40:43 10° 225° (SW) 2,383 6.3 -8.4°
Maximum altitude 05:45:54 44° 297° (WNW) 1,104 4.4 -7.6°
Drops below altitude 10° 05:51:05 10° 9° (N) 2,378 6.4 -6.7°
Sets 05:53:36 0° 16° (NNE) 3,304 7.2 -6.3°
